Wind_Speed
11 11 12 13 13 14 14 15 16 16 17 17 16 16 15 14 14 15 16 17 17 18 19 19 18 15 14 18 22 20 16 16 15 14 14 13 14 15 17 18 18 19 19 19 18 18 17 17 16 16 15 14 14 13 12 10 9 7 6 4 4 3 3 3 2 1 1 1 0 0 1 1 2 2 3 3 4 4 4 4 3 3 2 1 1
11 11 12 14 14 14 14 15 16 16 17 16 16 16 15 15 15 16 17 17 17 17 18 18 19 18 15 16 21 22 19 17 17 16 15 15 16 16 15 17 19 20 20 20 19 19 19 19 18 18 17 16 15 15 14 12 11 9 8 6 5 4 4 4 3 2 2 2 1 1 1 0 1 2 3 3 3 4 3 3 3 2 1 0 1
11 11 12 13 14 15 16 16 15 15 15 16 16 17 17 17 16 16 16 17 16 16 17 18 19 20 18 17 19 22 22 20 18 18 17 18 18 18 17 17 19 22 22 22 21 21 21 21 20 19 18 18 17 16 16 15 13 11 10 8 7 6 5 5 4 3 3 3 2 2 2 2 0 1 2 3 3 3 3 2 2 2 1 1 2
11 11 11 12 13 14 15 15 14 14 14 15 16 18 18 19 18 17 17 17 17 17 17 19 20 21 20 18 18 21 23 22 20 19 18 18 18 19 20 18 19 21 22 22 22 23 22 22 22 21 20 19 18 18 17 16 15 14 12 11 9 8 6 6 5 5 4 4 4 3 3 3 2 1 2 3 3 3 2 2 2 1 1 1 2
9 9 9 10 11 12 13 13 14 16 16 17 18 18 19 20 20 20 19 19 19 18 18 19 21 22 21 19 18 18 20 21 21 20 18 18 19 19 20 20 19 20 22 23 24 24 24 24 23 22 22 21 20 19 18 17 17 16 15 13 12 10 9 8 7 6 6 5 5 5 5 5 4 3 2 2 2 2 2 1 2 1 1 1 2
10 10 10 11 12 12 13 14 16 17 18 18 19 19 20 21 21 21 21 21 20 19 19 20 21 22 22 21 19 19 19 20 20 21 21 19 19 20 21 21 21 19 21 24 26 26 26 25 25 24 23 23 22 21 20 19 18 17 17 16 14 13 11 10 9 8 7 7 6 6 6 6 6 5 4 3 3 2 2 1 1 1 1 1 2
15 16 14 14 14 14 15 15 16 17 18 18 19 20 20 21 21 21 22 22 22 21 20 21 22 23 23 22 22 22 22 21 19 20 22 21 20 21 21 22 21 20 21 24 25 27 27 27 27 26 25 24 23 22 21 20 19 19 18 17 17 15 14 12 11 10 9 8 8 7 7 7 7 7 6 5 4 4 3 2 1 1 1 2 2
18 20 18 16 16 16 16 17 17 18 19 20 20 21 21 22 22 22 23 23 23 23 22 22 22 23 23 23 23 23 24 24 21 19 21 23 23 22 22 22 23 22 22 23 24 26 28 28 28 28 28 27 26 24 23 22 21 20 20 19 18 17 16 14 13 12 11 10 10 9 8 8 8 8 7 6 5 5 4 4 3 2 2 2 3
17 18 18 17 17 17 17 18 19 19 20 21 21 22 23 24 25 25 25 25 23 23 23 23 23 23 23 23 24 24 25 25 25 23 22 24 25 24 23 24 25 24 23 23 22 24 27 29 30 30 30 30 28 27 25 24 24 22 22 21 20 19 18 17 15 14 13 13 12 11 10 10 10 9 9 8 7 7 6 5 4 4 3 3 3
16 16 16 17 17 18 19 19 20 20 21 22 22 23 24 25 26 27 28 27 26 24 23 24 25 24 24 24 24 25 26 26 26 26 25 25 26 26 25 25 25 26 26 24 23 24 25 28 31 32 32 31 30 30 28 27 26 25 24 23 22 21 20 19 17 16 15 15 14 13 12 11 11 11 10 10 9 8 8 7 6 5 5 4 4
17 17 17 17 17 18 19 20 20 21 22 22 23 24 25 26 27 28 28 28 27 26 25 24 25 25 25 25 25 26 26 26 27 27 27 27 27 27 27 26 25 27 28 27 25 24 24 26 29 32 33 33 32 31 31 30 28 27 26 25 24 23 22 21 20 19 17 17 16 15 14 13 13 12 11 11 10 10 9 9 8 7 6 6 5
18 18 18 18 18 19 20 21 22 22 23 24 24 25 25 26 27 28 29 30 29 29 27 25 24 24 25 26 26 27 27 27 28 28 28 29 30 29 28 27 25 26 29 30 28 26 26 28 28 28 29 31 32 32 31 31 31 30 29 27 26 25 24 23 22 21 20 19 18 17 17 16 15 14 13 12 11 11 11 10 10 9 8 7 6
19 19 19 19 20 20 21 22 23 23 24 25 25 26 26 27 27 29 30 31 31 31 29 27 25 24 24 25 26 27 28 28 29 29 30 30 30 30 29 28 27 26 28 30 31 29 29 28 27 26 26 29 33 34 33 33 32 31 31 30 29 27 26 26 25 24 23 22 20 19 19 18 17 16 15 14 13 12 12 11 11 10 9 9 8
20 21 21 21 21 22 22 23 24 25 25 26 27 27 28 28 29 29 30 31 32 32 31 29 27 25 24 23 24 26 27 28 29 30 31 31 31 30 30 30 29 28 28 30 31 32 32 30 28 27 27 29 32 35 36 36 34 33 33 32 31 30 29 28 27 27 26 24 23 22 21 20 19 19 17 16 15 15 14 13 12 12 11 10 10
21 22 22 23 23 24 25 25 26 27 27 27 28 29 30 30 30 31 31 32 32 33 32 31 30 27 25 23 23 24 25 26 27 29 31 32 32 31 31 30 31 31 29 29 30 32 34 33 31 30 30 31 32 34 36 38 37 36 35 33 32 32 31 30 29 29 28 27 26 24 23 22 21 21 20 19 18 17 16 15 14 14 13 12 12
21 22 23 24 24 25 26 27 27 28 28 28 29 30 31 31 32 32 32 33 33 33 33 33 32 30 28 25 22 21 23 25 27 30 32 33 33 33 32 31 31 32 30 29 31 33 35 36 35 34 33 33 34 34 34 36 39 39 37 35 34 33 32 31 31 30 29 29 28 27 26 25 23 23 22 21 20 19 18 17 17 16 15 15 14
22 23 24 24 25 26 26 27 28 29 29 30 30 31 32 32 33 33 33 33 34 35 35 34 33 33 31 28 25 22 21 24 26 29 32 33 34 34 34 32 31 31 31 30 31 33 35 37 37 37 36 36 36 36 35 35 38 40 39 38 36 35 34 33 32 32 31 31 30 29 29 27 26 25 24 23 22 21 20 19 18 18 18 17 16
22 23 24 25 25 26 27 28 29 30 31 31 32 32 33 34 34 34 34 34 35 36 36 36 35 35 33 31 29 26 23 23 24 26 30 33 35 35 35 35 32 31 32 33 32 33 33 36 38 39 38 38 37 38 37 35 36 38 39 39 39 39 37 36 34 33 33 32 32 32 31 30 29 27 26 25 24 23 22 21 20 20 19 19 18
25 25 26 27 27 28 28 29 30 31 32 33 33 34 34 35 35 35 35 35 36 36 37 37 37 36 36 34 32 30 27 25 24 24 26 30 34 35 35 36 35 34 34 34 34 35 34 34 37 38 38 39 39 38 37 36 35 36 37 38 39 40 40 38 37 36 35 35 34 33 33 32 31 30 28 27 26 25 24 23 22 22 21 20 19
26 27 27 29 29 30 30 30 31 32 33 34 34 35 36 36 37 37 37 36 37 37 38 38 38 37 37 36 34 33 31 28 27 26 25 27 30 33 35 36 37 37 37 36 35 36 36 35 36 36 37 40 40 39 38 37 36 36 36 36 38 39 40 40 39 38 38 37 36 35 34 34 33 32 31 29 28 27 26 25 25 24 23 22 21
25 26 27 28 29 30 31 31 31 32 33 34 35 36 37 37 38 39 38 38 38 38 39 39 39 38 37 37 36 35 34 31 29 28 27 26 28 31 33 36 37 37 39 38 37 37 37 37 38 36 36 38 40 39 38 37 37 37 37 36 37 38 39 40 40 39 39 38 38 37 36 36 35 34 33 31 30 29 28 27 26 26 24 23 22
26 27 27 28 29 30 31 31 32 33 33 34 35 36 37 38 39 40 40 40 40 40 40 41 41 41 40 38 37 37 36 34 32 30 29 28 28 30 32 34 35 36 39 40 39 38 37 38 39 38 38 38 39 40 38 38 38 38 38 37 38 38 39 39 39 39 40 40 39 39 38 38 37 36 35 33 32 31 30 29 28 27 26 25 24
27 28 29 30 30 31 31 32 32 33 33 34 35 36 38 39 39 40 40 41 42 42 42 42 42 42 42 40 38 38 37 36 34 31 30 29 28 29 32 33 33 33 38 41 40 39 38 38 39 39 39 38 39 40 39 39 38 38 39 39 39 40 41 39 38 39 40 41 40 40 40 39 38 38 37 36 35 33 32 31 30 28 27 26 25
28 29 30 30 31 32 32 33 33 33 34 34 35 36 38 39 40 40 41 42 43 43 43 43 43 43 43 42 40 39 38 36 36 34 31 29 29 29 32 33 32 31 35 39 40 40 39 39 39 39 39 39 39 40 41 41 39 39 40 41 41 42 42 40 39 38 39 40 41 41 41 41 40 39 39 38 37 35 34 33 31 30 29 28 27
28 29 30 31 32 33 34 34 34 34 35 35 36 37 38 40 41 41 42 43 44 44 44 44 44 44 44 43 41 40 39 38 37 36 33 31 30 30 32 34 33 32 34 36 38 38 38 38 40 41 40 40 40 41 42 43 41 39 41 43 43 44 43 41 40 39 38 39 41 42 42 42 42 41 40 40 39 38 36 35 33 32 31 30 29
29 30 31 32 33 34 35 35 35 35 36 36 37 38 39 40 41 42 43 44 45 45 45 46 46 46 45 44 42 41 40 39 37 37 36 34 32 32 32 34 34 33 34 35 36 37 37 38 40 41 42 41 40 41 42 44 44 42 43 44 45 45 44 42 40 39 38 38 39 41 43 43 43 42 42 41 41 39 38 37 36 34 33 32 31
30 31 32 33 34 34 35 36 36 36 36 37 38 39 40 41 42 43 44 45 46 46 46 47 48 47 46 44 42 41 40 39 38 38 38 36 35 34 33 34 35 34 35 35 35 36 37 38 40 41 42 42 41 40 41 44 46 45 45 46 46 45 43 42 41 39 38 37 38 39 41 43 44 43 43 42 42 41 40 39 38 36 35 34 33
31 32 32 33 34 35 35 36 36 37 37 38 39 40 41 42 42 44 45 46 47 47 48 48 49 49 47 45 42 40 39 39 39 39 39 38 37 36 35 36 36 36 35 35 34 35 36 38 39 40 42 43 42 42 41 43 45 45 46 47 45 44 43 42 42 42 39 38 37 37 39 41 43 44 44 44 43 43 42 41 40 39 38 37 35
31 32 33 34 35 35 36 37 37 37 38 39 40 41 42 43 43 44 46 47 47 48 48 49 50 50 48 45 41 38 38 38 39 39 39 38 38 38 37 38 38 38 37 35 32 33 35 37 39 40 41 42 43 43 42 42 44 46 47 48 46 45 44 43 43 43 41 39 37 37 38 39 42 43 44 45 44 44 43 43 42 41 40 39 38
31 32 33 34 35 35 36 37 38 38 39 39 40 41 42 43 44 45 46 46 47 48 49 49 50 49 47 44 40 37 37 38 39 38 38 38 39 39 39 38 39 39 39 38 34 32 35 37 38 40 42 42 42 43 43 42 42 45 47 48 47 45 44 43 44 44 43 41 39 39 39 39 40 41 43 45 45 45 44 43 43 42 41 41 40
32 32 33 34 34 35 37 38 39 39 40 40 40 41 43 44 45 46 46 46 47 48 49 50 49 47 45 42 39 36 37 37 37 37 37 37 38 39 39 39 39 40 40 40 37 34 35 37 37 39 41 42 42 42 42 42 42 44 47 48 47 46 45 43 44 46 45 42 40 40 40 39 39 39 40 43 46 46 44 44 44 44 43 43 42
32 33 34 34 35 36 38 39 40 40 41 41 41 42 43 44 45 46 46 47 47 48 49 49 48 46 43 40 37 36 36 36 36 37 37 38 38 39 39 39 40 40 40 41 39 36 36 38 38 39 41 42 43 42 41 41 42 44 45 46 46 48 48 46 45 47 46 43 41 40 40 39 38 37 38 41 44 46 46 45 44 45 45 45 44
32 33 34 35 36 38 39 40 40 40 41 41 41 42 43 44 45 46 46 47 47 48 49 48 46 44 41 39 36 35 34 34 36 38 37 37 38 39 40 39 40 40 40 41 41 38 37 38 39 39 41 42 42 42 42 41 42 44 44 45 46 48 50 48 45 47 49 46 42 41 41 40 39 37 37 39 42 44 46 46 45 45 45 46 46
31 32 34 35 37 38 39 40 40 40 40 41 42 42 43 44 45 45 46 47 47 47 48 46 43 40 38 37 35 33 33 35 37 38 36 36 37 38 39 39 39 40 41 40 40 39 38 39 39 39 40 43 42 42 43 42 42 44 44 45 46 47 49 48 45 47 49 49 46 43 42 41 40 38 38 38 40 42 44 45 45 45 45 45 46
31 32 33 35 36 38 39 40 41 42 41 41 42 43 43 44 45 45 46 47 47 46 46 43 40 37 36 35 34 34 34 36 37 37 35 34 35 37 38 38 39 40 41 41 40 39 38 38 39 39 40 42 42 42 43 43 43 43 44 44 46 47 48 46 45 46 48 49 49 46 43 42 42 40 39 39 39 39 41 43 44 45 45 45 45
32 33 34 36 38 40 41 40 40 41 41 42 42 43 43 43 44 45 45 46 46 45 43 40 36 35 36 36 35 34 34 34 35 35 34 33 34 35 36 37 38 38 40 42 41 39 37 38 39 39 40 40 41 42 43 44 44 44 43 44 46 48 48 46 45 45 47 48 49 48 44 42 43 42 41 40 39 39 39 40 42 44 45 45 44
34 35 36 38 40 41 41 41 41 42 42 42 43 43 43 43 44 44 45 45 45 43 40 37 35 35 36 36 35 34 33 33 33 34 33 32 33 33 34 35 37 37 38 41 42 40 38 37 38 38 40 40 40 41 43 44 45 45 44 44 45 47 49 48 45 45 47 48 49 48 44 42 43 43 42 40 39 39 39 39 40 41 42 44 44
36 37 38 40 41 42 43 43 44 44 43 43 43 43 43 43 44 44 44 44 44 42 39 37 36 36 35 35 35 34 34 33 33 33 32 32 32 32 33 35 36 36 36 38 41 40 38 38 38 37 39 41 40 40 42 44 45 45 44 44 45 47 49 49 46 45 47 48 48 48 45 44 45 45 43 41 39 39 40 39 38 39 40 42 44
37 38 39 41 43 43 44 44 44 44 43 43 42 42 42 43 43 43 43 43 42 40 38 37 36 35 34 34 33 34 34 34 34 33 32 31 32 33 34 35 35 35 35 35 38 39 38 38 39 38 38 41 41 40 42 43 44 45 45 45 45 46 47 48 48 46 48 49 48 48 45 42 44 46 43 41 39 39 39 39 38 38 39 40 42
38 39 41 42 43 44 44 44 44 43 43 42 42 42 42 42 42 41 41 41 40 38 36 35 34 33 32 32 32 33 34 34 34 34 33 32 32 33 35 36 36 36 35 34 35 37 37 37 40 40 39 40 42 41 42 43 44 45 46 45 45 44 45 46 47 47 49 50 49 50 47 42 42 45 43 40 39 38 39 39 38 36 36 38 39
39 40 42 43 44 44 44 44 44 43 43 42 42 42 41 41 41 40 40 40 38 36 35 34 33 32 31 31 31 32 33 33 33 34 33 33 33 34 36 37 38 38 37 35 35 36 36 36 38 40 40 41 42 42 42 43 44 45 46 46 45 45 45 46 47 48 50 50 49 49 49 45 43 44 43 40 38 38 38 38 37 35 35 36 38
40 42 43 44 44 45 45 45 44 43 43 42 41 41 40 40 40 39 40 39 37 35 34 32 31 31 31 31 31 31 32 32 32 33 33 33 33 34 36 38 39 39 38 37 35 34 35 35 36 39 42 42 42 42 42 43 45 45 46 46 45 45 45 47 48 49 50 50 48 46 45 44 44 44 43 41 39 38 38 37 36 35 35 36 38
41 43 44 45 45 46 46 45 44 43 42 42 40 39 40 39 39 39 39 38 35 34 33 31 29 30 30 31 30 31 31 32 32 32 32 32 33 34 36 38 40 41 41 39 36 32 32 34 35 37 41 42 42 42 41 42 44 45 46 47 45 44 45 47 48 49 49 48 47 44 42 43 43 43 43 43 41 39 37 36 36 35 35 36 38
42 44 46 46 46 46 46 45 44 42 42 41 39 39 39 39 38 39 39 37 34 33 33 30 29 29 30 30 31 31 32 32 32 32 31 32 33 34 36 38 40 42 42 41 38 31 28 32 34 36 39 41 41 40 41 42 44 46 47 47 46 44 45 47 48 48 48 49 49 45 42 43 43 43 43 43 42 40 37 36 37 36 36 36 37
43 45 47 47 46 46 46 45 43 42 42 41 39 38 38 38 37 38 38 35 33 32 32 31 30 29 30 30 31 32 33 33 32 32 31 31 32 34 36 37 39 41 42 41 40 35 29 29 33 36 38 40 40 39 40 42 43 45 47 48 47 45 45 46 46 47 49 51 52 47 43 43 43 42 42 42 42 41 38 37 38 37 36 36 37
44 45 46 47 47 46 46 46 43 42 42 41 38 38 37 36 36 37 36 34 32 32 31 31 31 31 30 30 31 32 33 33 33 32 31 31 31 33 35 37 38 39 38 38 39 38 33 30 33 36 37 39 40 39 40 41 43 45 47 49 48 47 47 46 46 47 50 52 53 50 44 42 42 41 40 41 42 41 39 38 39 39 38 37 37
46 45 45 47 48 47 47 46 44 41 40 39 37 37 37 35 34 35 35 33 32 31 30 30 31 32 32 31 31 31 32 33 32 32 31 31 31 32 33 34 35 34 33 34 37 39 36 33 32 35 37 38 39 39 40 41 43 45 48 50 50 48 48 48 47 47 50 52 53 50 44 41 42 41 38 39 42 42 40 39 39 39 39 38 38
47 45 44 46 48 48 46 45 43 40 39 38 37 37 37 34 32 33 34 34 32 30 30 30 31 32 33 32 31 31 32 32 32 31 31 31 31 31 32 32 32 32 32 33 36 39 38 35 31 33 36 36 36 37 39 41 43 45 48 51 51 49 48 48 46 46 48 51 52 50 45 41 42 40 38 40 43 42 41 39 39 39 39 39 39
48 46 45 46 47 47 45 44 42 40 38 38 36 36 36 33 31 32 34 34 32 31 30 30 31 32 33 33 31 31 31 31 31 31 32 32 32 32 31 31 31 33 33 32 33 36 38 37 33 32 34 34 33 35 39 41 43 46 49 51 50 49 48 47 45 44 46 49 51 50 45 42 42 39 38 41 43 42 41 40 39 40 40 40 40
50 47 45 44 44 45 43 43 42 40 37 36 35 35 35 32 30 32 34 33 33 32 31 30 31 32 33 33 32 32 32 32 31 32 32 32 32 33 32 31 33 34 33 32 31 31 34 36 35 32 32 31 31 34 38 41 43 45 49 51 50 49 48 45 43 44 46 48 50 49 45 42 41 39 38 41 43 41 39 39 39 40 40 40 41
50 47 44 42 42 43 42 42 41 39 36 34 34 35 35 32 32 34 35 33 33 33 31 30 30 31 32 34 34 33 33 32 31 32 32 31 33 33 32 31 33 34 33 32 32 30 30 32 34 32 30 31 32 34 37 40 42 45 49 51 50 49 47 44 42 44 47 48 47 47 44 41 41 40 39 41 41 39 38 39 39 40 41 41 41
Wind_Direction
346 344 337 336 335 334 337 338 336 335 331 329 327 325 322 318 315 312 311 310 306 303 301 301 298 293 290 289 288 286 282 278 277 276 272 267 263 257 253 251 250 247 243 241 240 238 237 236 237 239 241 240 238 239 241 240 234 230 226 225 236 240 232 225 224 213 190 169 131 61 52 16 353 351 353 353 355 357 356 356 353 348 336 302 195
348 348 342 338 338 342 345 345 342 335 329 328 327 325 323 320 317 315 313 312 310 306 301 299 298 296 293 289 288 288 283 277 278 280 275 269 266 264 258 251 247 244 241 239 238 238 236 234 233 235 238 239 238 238 240 241 238 235 232 228 234 244 241 229 219 211 202 198 198 180 160 128 350 338 341 342 346 353 356 359 356 351 344 233 180
350 350 349 345 346 350 350 348 342 334 330 329 329 329 329 328 325 320 314 312 310 307 303 300 299 298 295 290 286 285 281 276 273 271 270 268 267 267 265 258 249 243 240 239 238 239 237 234 231 232 234 235 237 237 238 241 241 239 237 234 233 240 245 239 226 212 207 207 210 203 185 174 191 329 330 330 336 347 354 359 0 0 0 175 169
354 353 355 355 354 354 351 348 343 341 341 338 337 337 337 336 334 328 321 315 310 306 304 302 302 302 298 288 281 279 277 274 268 264 263 265 265 265 265 264 257 250 247 245 243 242 240 237 233 230 231 232 233 235 237 239 241 242 241 239 236 237 242 244 236 220 212 212 215 214 202 193 194 256 306 314 321 334 345 355 6 18 40 157 161
355 358 360 3 4 3 359 356 355 354 354 351 348 346 344 342 340 336 330 323 317 310 304 301 301 302 301 293 282 275 271 267 265 264 261 259 261 262 262 264 263 258 253 249 247 247 246 243 238 234 231 230 230 232 234 236 240 242 242 242 241 239 238 243 242 231 219 214 217 218 213 208 208 219 249 282 292 309 324 344 15 41 71 124 150
354 3 9 14 16 14 10 7 4 0 359 357 353 351 349 345 343 340 335 331 326 318 310 304 301 299 299 297 290 281 273 264 260 261 260 256 257 260 261 262 262 259 255 248 245 246 247 247 244 240 236 232 230 230 231 233 236 240 242 243 243 242 240 241 243 240 229 219 217 219 219 217 217 220 226 244 260 272 279 282 26 70 92 118 137
348 350 358 12 16 13 10 7 4 0 358 357 355 353 350 346 344 340 337 334 330 325 319 311 305 300 296 294 292 288 282 273 263 259 260 259 256 256 258 261 261 260 260 257 250 244 244 246 246 245 243 238 234 232 231 231 233 236 239 242 243 243 242 241 242 243 238 228 220 218 221 222 223 225 227 230 237 246 251 242 218 140 129 132 140
355 351 352 3 9 6 5 3 360 358 356 354 353 352 350 347 344 341 339 336 331 326 322 317 311 306 299 294 291 288 285 280 272 263 261 262 260 257 257 259 261 262 262 262 259 250 244 243 244 244 244 242 239 235 233 233 232 233 235 238 241 243 242 241 242 243 242 237 228 220 219 222 226 229 231 233 231 232 238 238 226 199 175 158 153
359 355 353 356 0 358 358 358 356 354 352 351 351 350 349 348 345 343 341 339 335 327 321 320 316 311 304 297 291 287 284 281 279 272 264 262 262 261 258 256 258 260 259 259 259 255 250 244 241 241 241 242 240 237 235 234 233 232 233 234 237 240 241 241 241 241 242 241 237 229 221 220 225 230 234 235 233 228 229 234 232 219 207 189 174
350 350 349 351 352 351 352 352 351 349 348 348 348 348 348 348 346 344 342 341 337 331 324 321 318 314 307 298 292 289 285 282 279 275 269 264 263 262 260 256 254 256 259 257 253 254 257 250 243 240 238 239 239 238 235 234 233 233 232 232 233 235 238 240 240 240 241 241 240 237 230 223 222 229 234 236 234 231 226 228 231 228 224 215 201
341 343 344 345 345 345 345 345 346 344 344 345 345 345 346 346 345 343 342 340 338 334 330 324 320 315 307 298 291 288 285 280 277 274 270 265 262 261 262 260 254 253 256 257 252 250 255 255 249 243 238 237 239 238 236 234 233 233 232 231 231 233 235 237 238 239 239 239 239 239 237 231 225 225 230 235 235 232 228 227 229 229 229 228 221
335 337 337 337 337 338 339 340 341 340 340 341 342 342 343 343 343 342 341 340 338 337 334 330 323 316 308 301 293 287 283 279 276 275 272 268 265 264 263 263 259 252 252 255 255 250 249 254 256 250 243 241 242 242 241 238 235 234 233 232 231 231 232 234 235 236 236 238 238 238 238 236 232 227 227 230 233 232 230 229 230 230 230 231 229
332 331 330 331 332 333 334 334 336 337 337 338 338 339 339 339 339 339 339 339 338 337 336 332 326 319 311 304 295 288 283 278 276 275 275 273 271 269 267 267 264 256 250 250 253 251 249 250 253 253 251 248 245 244 243 242 239 237 235 233 231 230 231 232 233 234 233 234 235 237 237 236 235 232 229 227 228 230 229 229 231 232 232 233 233
329 328 327 328 329 329 329 329 332 333 334 335 335 335 335 335 336 336 336 337 337 336 335 332 328 324 316 308 300 293 286 278 274 274 275 274 272 270 270 269 267 262 253 248 249 250 250 248 247 250 253 252 247 244 242 242 240 238 236 234 232 230 229 230 232 233 232 232 232 234 235 236 235 234 232 229 227 227 227 228 230 232 233 234 235
326 326 326 326 326 326 326 327 328 330 331 332 333 333 332 332 332 333 334 335 334 334 333 332 330 326 321 314 304 296 288 278 273 274 275 274 272 269 268 268 268 266 260 253 250 250 251 250 250 252 252 252 250 246 243 241 239 238 236 235 234 231 229 229 230 232 232 232 231 231 232 234 235 234 233 231 229 227 226 226 228 230 232 234 236
326 326 325 325 325 324 324 324 324 325 327 328 329 330 330 330 330 329 331 332 332 331 331 331 330 326 323 318 309 299 289 280 276 275 275 273 270 269 267 266 266 267 265 261 257 254 252 250 252 254 252 249 249 247 245 242 239 238 237 237 237 235 232 231 230 231 232 232 231 230 230 231 233 233 233 232 231 229 228 227 227 229 231 233 235
327 327 326 325 324 322 321 320 320 322 324 325 326 326 327 327 327 326 327 328 328 329 329 330 329 325 323 319 313 305 293 283 277 275 274 272 268 268 268 266 264 266 265 261 258 257 255 253 252 253 251 247 246 246 247 244 239 237 236 237 237 236 235 234 233 233 232 232 232 231 230 229 230 231 232 232 231 231 229 228 228 228 231 233 234
328 327 326 324 323 321 321 320 320 322 323 323 323 324 324 324 324 323 324 324 325 326 327 328 327 325 322 319 315 309 302 291 281 275 273 272 269 267 267 267 264 261 259 256 255 253 253 253 252 251 249 247 246 245 245 245 241 237 235 237 238 236 234 234 234 235 235 234 233 232 231 229 228 229 230 231 231 230 230 229 228 228 229 232 234
329 327 326 324 323 322 322 321 321 322 322 322 321 321 321 321 321 321 321 322 322 323 324 325 325 324 322 319 315 311 307 300 289 279 272 271 271 268 266 265 263 260 258 256 256 253 250 250 250 249 248 247 245 243 243 244 244 240 237 237 239 237 235 233 233 234 235 237 236 234 233 231 229 228 228 230 231 230 229 229 229 228 228 229 232
327 326 325 323 322 322 322 322 321 321 321 320 320 319 319 319 319 319 319 320 320 321 321 321 322 323 321 318 315 311 308 303 296 288 277 270 271 271 267 264 262 261 260 258 256 255 254 252 251 248 246 246 245 243 242 244 244 242 240 238 237 237 237 236 234 232 231 234 236 237 235 233 231 229 227 228 230 230 230 229 229 229 228 228 229
324 323 322 321 321 321 322 321 321 320 320 319 318 318 317 318 318 318 318 318 319 319 319 319 320 320 320 317 313 310 306 303 299 295 287 275 268 269 269 266 263 261 260 257 255 255 255 253 251 250 248 245 244 242 240 241 242 242 243 241 237 236 237 237 237 235 232 231 232 235 237 235 233 231 229 228 229 230 230 230 230 230 230 229 229
321 321 320 320 320 321 321 321 320 319 318 318 317 317 316 317 317 317 318 318 318 319 319 319 320 320 319 316 312 308 305 302 300 297 292 283 272 267 267 266 265 263 262 259 255 254 255 253 252 252 250 246 244 242 239 238 240 243 245 242 238 238 239 237 236 236 235 233 231 232 234 235 234 232 231 229 228 229 231 231 231 231 232 232 231
320 320 320 321 321 321 320 319 319 318 317 317 316 316 316 316 316 317 317 317 317 318 319 319 320 319 318 316 311 306 303 302 300 297 293 288 279 270 267 266 264 263 263 261 257 254 253 253 252 251 250 247 245 244 240 238 239 241 243 241 238 239 240 238 237 236 235 235 233 231 232 233 234 233 231 230 229 229 230 231 231 231 232 232 233
318 319 320 320 320 319 319 319 318 317 317 316 316 315 315 315 316 316 316 316 317 318 318 319 319 318 316 314 310 305 302 301 299 296 293 288 282 274 269 267 264 260 260 261 260 257 255 254 252 251 249 247 246 244 241 240 240 239 240 240 238 238 239 239 239 238 236 235 234 232 231 232 234 234 232 230 229 228 229 230 230 231 231 232 233
316 317 318 318 319 319 319 319 318 318 317 316 315 315 315 315 315 316 316 316 317 317 317 318 317 316 315 312 309 304 301 300 297 295 292 287 281 276 271 268 266 261 259 259 259 259 258 256 253 250 249 247 246 244 241 240 242 243 241 240 239 237 238 240 240 238 237 236 234 233 232 232 233 234 233 231 230 229 229 229 230 230 231 232 232
313 315 317 317 318 318 318 318 318 317 316 315 315 314 315 315 316 317 317 317 316 317 317 317 317 316 314 311 308 303 299 298 296 293 290 287 282 277 272 269 266 263 259 258 257 257 257 257 256 252 249 247 246 244 243 241 242 244 242 239 238 237 239 240 239 237 237 237 235 234 233 232 232 233 233 232 231 230 229 229 229 230 230 231 232
312 314 316 317 317 317 317 317 317 316 315 315 315 315 315 316 317 317 317 316 316 317 317 318 317 315 313 311 307 301 297 296 294 291 289 286 283 279 273 268 266 264 261 258 256 255 254 255 257 255 251 249 247 245 243 241 241 242 240 238 237 236 238 239 237 236 236 236 234 234 234 233 231 232 233 233 232 230 229 229 229 229 230 231 232
310 313 315 316 316 316 316 316 316 315 315 315 315 316 317 317 317 317 317 317 317 318 318 318 317 315 313 311 306 300 297 296 294 291 288 286 284 280 275 269 265 262 261 261 260 259 256 254 254 256 254 249 246 245 243 241 241 240 238 237 236 235 236 238 237 235 236 235 233 233 234 234 232 231 232 233 233 231 230 229 229 229 230 231 231
309 312 314 315 315 315 315 315 315 315 316 316 316 317 317 317 317 317 317 318 318 318 318 318 316 315 313 311 306 299 297 297 295 292 288 286 284 281 277 272 267 262 259 258 260 262 261 257 253 253 255 252 247 245 243 241 240 240 237 236 236 234 235 237 237 236 236 235 235 234 234 234 233 231 231 232 233 232 231 230 229 229 229 230 231
308 311 313 314 315 315 315 315 316 316 316 317 317 317 317 317 317 317 317 318 318 318 318 318 316 314 313 310 305 299 298 297 295 291 288 285 284 281 278 274 270 266 262 256 254 258 261 260 257 254 254 254 250 246 245 242 241 240 238 236 235 235 235 236 236 235 235 236 238 238 234 233 233 231 231 232 233 233 232 231 231 230 230 230 231
309 311 312 313 314 314 315 316 317 317 318 318 318 317 317 316 316 317 318 318 319 319 318 318 316 314 312 308 303 300 299 297 293 289 287 285 284 282 280 278 273 270 266 261 254 254 258 259 258 257 255 253 252 249 246 244 243 240 237 235 235 234 234 235 236 235 235 236 239 239 236 234 232 231 231 232 233 233 232 232 231 231 231 231 232
309 310 311 312 314 316 317 318 318 318 318 318 318 317 316 317 317 318 319 319 319 319 318 317 315 313 310 306 304 304 301 296 291 289 287 286 284 283 281 280 278 273 269 265 259 256 257 257 255 257 257 254 252 251 248 245 244 242 238 235 234 233 234 236 236 235 234 234 236 237 235 234 233 231 231 232 232 232 232 232 232 231 231 232 232
309 310 312 314 316 319 319 319 319 319 319 318 318 317 317 318 318 319 319 320 321 320 318 317 316 313 310 307 306 306 301 294 290 287 287 286 285 284 283 282 281 278 274 269 263 258 258 258 254 253 256 256 253 252 249 245 243 243 240 236 233 232 233 236 236 233 232 232 233 234 234 232 232 231 231 233 233 233 232 232 232 232 232 232 232
309 312 315 317 318 319 318 318 318 319 319 319 318 318 318 318 319 319 320 321 321 320 318 317 316 315 313 310 307 303 298 292 289 287 288 288 286 284 284 283 283 282 279 274 268 261 258 258 255 252 253 255 254 252 250 246 244 243 241 237 234 231 232 235 235 232 231 231 232 234 233 232 232 231 231 232 233 233 233 233 233 233 233 233 233
309 311 314 316 318 318 319 320 321 321 320 319 318 318 319 319 319 320 320 321 320 320 318 317 317 316 315 313 308 303 297 293 291 290 291 289 287 285 285 285 284 284 283 279 273 266 260 257 256 253 251 253 254 252 249 246 244 244 242 238 234 231 231 234 235 233 232 232 234 235 235 234 233 232 232 233 233 234 235 235 234 234 234 235 235
308 310 313 315 317 319 320 321 321 320 319 319 319 319 320 320 319 320 321 321 320 320 318 316 316 316 314 312 309 305 300 296 293 293 292 290 288 287 286 286 285 284 284 282 278 271 263 258 256 255 252 251 252 251 248 244 241 242 243 239 234 232 231 232 233 232 231 232 233 235 236 235 233 232 233 233 234 235 236 236 236 236 236 236 236
310 312 314 317 318 319 319 319 319 319 320 320 320 320 320 319 319 320 321 320 320 319 317 314 314 315 314 311 309 306 302 299 296 294 293 291 289 289 288 288 287 285 284 283 280 275 268 261 257 255 254 252 250 249 248 244 239 238 240 238 235 233 231 231 232 230 230 231 231 232 236 237 233 232 232 232 233 235 237 237 237 237 237 237 237
314 316 317 318 319 319 318 317 318 319 320 320 320 320 320 319 319 320 320 320 319 318 315 313 313 314 313 310 308 305 303 300 298 296 295 292 291 291 291 290 290 288 286 283 281 277 272 266 261 256 253 252 250 248 247 245 239 236 236 236 235 234 232 231 231 229 228 229 230 231 236 236 232 230 231 231 231 233 235 237 238 238 238 237 237
315 316 316 317 318 318 318 318 318 319 319 320 320 319 318 318 319 320 320 319 318 316 314 312 312 312 311 309 307 305 303 301 300 298 297 296 295 295 295 294 294 292 288 284 281 278 273 268 265 258 251 251 251 248 247 246 240 236 235 234 232 234 234 232 230 229 227 227 227 228 231 232 230 229 229 230 231 232 234 236 238 239 239 238 237
315 315 316 318 318 318 318 318 318 318 319 319 319 318 318 318 318 319 319 318 316 315 313 311 310 309 308 307 306 304 302 301 300 300 299 299 299 298 298 298 298 296 293 289 285 281 274 268 265 259 250 249 251 249 246 246 242 235 233 233 229 230 233 232 228 227 226 225 225 225 228 232 233 230 229 230 231 232 233 234 236 239 241 241 239
315 316 318 318 318 318 317 317 317 318 319 318 318 318 318 317 317 318 318 317 315 313 311 309 308 307 306 306 305 304 303 302 301 301 302 303 302 301 301 301 301 300 298 295 289 284 277 268 263 259 251 248 250 250 245 244 243 237 232 231 228 226 229 229 226 225 225 224 224 224 228 234 235 232 231 231 231 232 232 233 234 236 239 240 237
315 317 318 317 317 316 316 316 316 317 317 317 317 317 317 316 316 317 317 315 313 312 310 308 307 306 305 305 305 305 305 304 304 304 305 307 306 305 305 305 304 304 302 298 293 286 278 270 263 257 253 249 249 250 246 242 242 238 232 230 227 224 225 226 223 223 224 223 223 224 227 231 231 231 232 232 231 232 232 231 232 234 237 238 236
316 317 317 316 315 315 314 315 316 316 316 316 316 317 316 315 315 316 316 315 313 312 310 308 306 305 304 305 305 306 306 305 305 306 308 309 310 309 309 309 308 306 304 300 295 287 277 271 265 257 253 252 250 250 247 242 241 239 232 229 227 223 223 223 220 220 222 222 221 223 225 227 228 229 230 230 231 231 230 229 230 232 234 236 235
316 316 315 314 314 313 313 314 315 315 314 314 315 316 315 314 314 316 316 315 313 311 309 307 305 305 304 305 305 306 306 305 306 308 310 312 313 313 313 312 310 308 306 303 299 290 277 271 268 259 252 251 250 248 246 241 240 238 232 227 226 224 222 221 218 218 220 221 220 221 224 226 227 227 227 228 230 230 229 228 228 230 233 235 235
315 313 312 312 312 312 312 313 314 314 313 313 315 316 314 313 314 315 316 314 311 309 308 306 306 306 305 304 305 305 305 306 307 310 313 316 317 317 315 314 313 311 309 306 303 296 284 275 271 263 253 248 247 246 244 240 238 237 232 226 225 224 222 221 218 216 218 220 220 220 222 226 228 227 225 225 228 230 229 227 227 229 231 234 234
313 312 311 310 311 311 311 312 313 314 313 313 314 315 314 313 313 315 315 313 310 307 306 306 306 306 305 303 304 305 305 306 308 311 315 318 319 318 316 316 316 314 311 307 303 298 291 284 277 266 254 247 244 242 240 237 236 235 230 225 223 222 221 220 218 216 217 220 219 218 220 225 227 227 224 224 226 229 229 228 227 228 230 232 233
310 310 310 309 309 309 310 312 314 314 313 313 313 314 313 312 312 315 315 313 309 306 305 306 306 306 305 303 303 305 305 306 308 311 315 317 317 317 316 317 319 319 315 309 303 299 295 290 282 268 254 243 239 237 236 235 234 232 229 224 221 220 220 219 218 216 217 219 219 218 219 223 226 226 224 223 224 227 230 229 227 227 229 231 232
309 309 309 308 307 307 309 311 312 313 311 309 309 311 312 309 309 314 316 313 309 306 304 304 305 304 303 302 302 304 305 307 309 312 313 314 314 315 316 317 321 323 319 313 308 304 299 295 287 270 254 240 233 233 235 235 234 231 227 223 220 220 220 219 218 218 219 219 219 218 218 221 225 225 224 224 224 226 228 228 227 227 228 230 231
307 307 307 305 304 304 307 309 310 310 308 305 305 310 311 307 305 312 316 313 310 308 304 302 302 302 301 301 301 302 304 307 309 310 311 312 314 315 315 316 319 322 321 317 314 309 303 299 292 275 257 242 231 230 234 236 235 231 225 221 219 220 220 219 218 219 220 219 219 219 219 220 224 225 223 224 225 225 226 227 226 227 228 229 230
306 307 306 304 301 302 305 307 307 308 306 303 305 311 312 303 299 308 315 314 310 309 305 301 300 300 300 301 301 302 303 307 309 309 310 313 313 313 314 316 319 322 321 318 317 314 305 299 294 280 263 247 235 232 235 236 235 231 224 218 218 219 219 218 218 219 218 217 218 220 220 221 224 224 223 223 224 225 227 227 226 227 228 229 229
303 304 303 300 297 299 303 305 306 308 307 304 304 309 310 301 296 304 313 314 310 309 306 302 299 299 300 301 301 302 303 307 308 307 310 313 312 311 314 319 321 322 321 318 318 315 306 298 294 283 266 250 241 237 236 237 236 230 223 218 216 217 216 217 219 219 215 215 217 220 221 221 223 224 222 222 223 225 226 227 226 227 229 228 228
Height
5929 5928 5927 5926 5926 5926 5925 5924 5922 5922 5922 5922 5922 5922 5921 5920 5920 5919 5918 5916 5915 5913 5912 5912 5913 5917 5919 5916 5912 5914 5917 5918 5918 5918 5917 5916 5916 5917 5917 5917 5917 5917 5918 5918 5919 5919 5920 5921 5922 5923 5924 5925 5926 5927 5927 5927 5928 5928 5928 5928 5929 5930 5930 5931 5931 5931 5931 5931 5932 5932 5932 5932 5932 5932 5932 5931 5931 5931 5931 5930 5930 5929 5929 5929 5929
5927 5926 5926 5925 5925 5924 5923 5922 5920 5920 5920 5921 5920 5920 5919 5918 5917 5916 5915 5914 5912 5911 5910 5910 5911 5913 5916 5915 5910 5909 5913 5916 5916 5915 5915 5914 5914 5914 5914 5915 5915 5915 5915 5916 5916 5917 5918 5919 5920 5921 5922 5923 5924 5925 5926 5927 5927 5927 5927 5928 5928 5929 5930 5930 5931 5931 5931 5931 5931 5931 5931 5932 5932 5932 5932 5932 5931 5931 5930 5930 5930 5930 5929 5929 5929
5926 5925 5925 5924 5923 5922 5921 5920 5920 5920 5920 5919 5919 5917 5917 5915 5915 5914 5913 5912 5911 5910 5909 5908 5908 5909 5911 5913 5911 5908 5909 5912 5913 5913 5912 5912 5912 5912 5912 5912 5912 5912 5912 5913 5914 5915 5915 5916 5917 5918 5919 5920 5922 5923 5924 5925 5926 5926 5927 5927 5927 5928 5929 5930 5930 5931 5931 5931 5931 5931 5931 5931 5932 5932 5932 5932 5931 5931 5931 5930 5930 5930 5930 5929 5929
5925 5925 5924 5923 5922 5921 5920 5921 5921 5920 5919 5918 5917 5915 5914 5913 5912 5912 5911 5910 5910 5909 5907 5906 5905 5905 5907 5909 5910 5909 5908 5908 5909 5909 5910 5911 5911 5910 5910 5909 5910 5910 5911 5912 5913 5914 5914 5915 5915 5915 5916 5917 5919 5921 5922 5923 5924 5925 5926 5926 5927 5927 5928 5928 5929 5930 5930 5931 5931 5931 5931 5931 5931 5931 5931 5931 5931 5931 5931 5930 5930 5930 5930 5930 5929
5925 5925 5925 5924 5923 5922 5922 5921 5920 5919 5918 5916 5915 5914 5912 5912 5911 5910 5910 5909 5908 5907 5906 5905 5904 5903 5903 5905 5907 5907 5907 5907 5906 5907 5908 5908 5908 5908 5908 5907 5908 5909 5910 5911 5912 5913 5914 5915 5914 5914 5914 5915 5916 5918 5919 5921 5922 5923 5924 5925 5926 5926 5926 5927 5928 5929 5929 5930 5930 5930 5930 5930 5930 5931 5931 5931 5931 5931 5931 5930 5930 5930 5930 5930 5930
5927 5926 5925 5924 5923 5923 5922 5921 5919 5918 5917 5916 5914 5913 5912 5911 5910 5909 5908 5908 5907 5906 5905 5904 5903 5902 5901 5901 5902 5903 5904 5905 5905 5905 5905 5905 5906 5906 5906 5905 5905 5907 5908 5908 5909 5911 5913 5914 5915 5914 5914 5913 5914 5915 5916 5918 5919 5921 5922 5924 5924 5925 5925 5926 5927 5928 5928 5929 5929 5930 5930 5930 5930 5930 5930 5930 5930 5931 5930 5930 5930 5930 5930 5930 5930
5925 5925 5924 5923 5922 5921 5920 5919 5918 5917 5916 5915 5914 5913 5912 5911 5910 5909 5907 5906 5905 5904 5904 5903 5901 5900 5899 5898 5898 5898 5899 5900 5903 5903 5901 5901 5902 5903 5903 5903 5903 5904 5905 5906 5907 5907 5909 5911 5913 5914 5914 5913 5913 5913 5914 5915 5916 5918 5920 5921 5923 5923 5924 5925 5925 5926 5927 5928 5928 5929 5929 5929 5929 5929 5930 5930 5930 5930 5930 5930 5930 5930 5930 5930 5930
5922 5921 5922 5921 5919 5919 5918 5917 5917 5916 5915 5914 5913 5912 5911 5910 5908 5907 5906 5904 5903 5901 5900 5899 5898 5897 5896 5896 5895 5894 5894 5894 5897 5900 5899 5897 5897 5899 5900 5900 5900 5901 5902 5903 5904 5905 5906 5907 5909 5910 5911 5912 5911 5911 5911 5912 5913 5915 5916 5918 5920 5921 5922 5923 5923 5924 5926 5926 5927 5927 5928 5928 5929 5929 5929 5929 5929 5930 5930 5930 5930 5930 5930 5930 5930
5921 5920 5920 5919 5918 5917 5917 5916 5915 5914 5914 5913 5912 5911 5910 5909 5907 5905 5904 5902 5900 5899 5897 5896 5895 5894 5893 5892 5892 5891 5891 5890 5891 5894 5896 5894 5892 5894 5896 5897 5898 5898 5899 5901 5902 5902 5903 5903 5904 5906 5907 5908 5909 5909 5909 5909 5910 5911 5913 5915 5916 5918 5920 5921 5921 5922 5924 5925 5926 5926 5926 5927 5928 5928 5928 5928 5929 5929 5929 5930 5930 5930 5930 5930 5930
5921 5920 5919 5918 5917 5916 5915 5914 5914 5913 5912 5911 5910 5909 5908 5906 5905 5903 5901 5900 5898 5897 5895 5893 5892 5891 5890 5889 5889 5888 5888 5887 5887 5888 5891 5892 5890 5891 5892 5894 5895 5896 5896 5898 5899 5899 5899 5900 5900 5901 5902 5903 5904 5905 5906 5906 5907 5908 5909 5911 5913 5915 5916 5918 5919 5920 5921 5923 5924 5925 5925 5925 5926 5927 5927 5928 5928 5928 5929 5929 5929 5930 5930 5930 5930
5920 5919 5918 5917 5916 5915 5914 5913 5912 5912 5911 5910 5909 5907 5906 5904 5903 5901 5899 5898 5896 5894 5893 5892 5890 5889 5887 5886 5885 5885 5884 5884 5883 5883 5886 5887 5887 5887 5888 5890 5892 5893 5893 5894 5895 5896 5896 5896 5897 5897 5898 5899 5900 5901 5902 5903 5904 5905 5906 5907 5909 5911 5913 5914 5916 5917 5918 5920 5921 5922 5923 5924 5924 5925 5926 5926 5927 5927 5928 5928 5929 5929 5930 5930 5930
5919 5918 5917 5916 5915 5914 5913 5912 5911 5910 5909 5908 5907 5905 5904 5902 5901 5899 5897 5895 5893 5892 5891 5889 5888 5886 5885 5883 5882 5881 5881 5880 5880 5880 5880 5881 5882 5883 5884 5885 5887 5888 5889 5890 5891 5892 5892 5892 5894 5895 5896 5897 5898 5899 5900 5901 5901 5902 5903 5904 5905 5907 5909 5910 5912 5914 5915 5917 5918 5920 5921 5922 5923 5923 5924 5925 5925 5926 5927 5927 5928 5928 5929 5929 5930
5917 5916 5916 5915 5913 5912 5911 5910 5909 5908 5907 5906 5905 5903 5902 5900 5899 5897 5895 5893 5891 5889 5888 5887 5885 5884 5882 5881 5879 5878 5877 5877 5876 5876 5876 5876 5877 5879 5880 5881 5882 5883 5884 5885 5886 5887 5888 5888 5890 5892 5894 5894 5895 5896 5897 5898 5899 5900 5900 5901 5902 5903 5904 5906 5908 5910 5911 5913 5915 5917 5918 5919 5920 5921 5922 5923 5923 5924 5925 5926 5927 5927 5928 5929 5929
5915 5915 5913 5912 5911 5910 5909 5908 5907 5906 5905 5904 5902 5901 5899 5898 5896 5894 5893 5891 5889 5887 5885 5884 5883 5881 5880 5878 5877 5875 5874 5874 5873 5872 5872 5872 5873 5874 5875 5876 5877 5878 5879 5880 5882 5883 5883 5885 5886 5888 5889 5890 5890 5890 5891 5893 5895 5897 5898 5898 5898 5899 5900 5902 5904 5905 5907 5909 5911 5913 5915 5916 5918 5919 5920 5921 5921 5922 5923 5924 5925 5926 5927 5928 5928
5914 5913 5911 5910 5909 5908 5907 5906 5905 5904 5902 5901 5899 5898 5896 5895 5893 5891 5890 5888 5886 5884 5883 5881 5879 5878 5877 5876 5875 5873 5871 5870 5870 5869 5869 5869 5869 5870 5871 5872 5873 5873 5875 5877 5878 5878 5879 5880 5882 5883 5884 5885 5885 5886 5887 5888 5891 5892 5894 5896 5896 5897 5897 5898 5900 5902 5904 5905 5907 5909 5911 5913 5915 5916 5917 5918 5919 5920 5921 5922 5923 5925 5925 5926 5927
5913 5912 5910 5909 5907 5906 5905 5903 5902 5901 5900 5898 5897 5895 5893 5892 5890 5889 5887 5885 5883 5881 5880 5878 5876 5875 5874 5873 5872 5871 5869 5868 5867 5866 5865 5865 5865 5865 5866 5868 5869 5869 5871 5873 5873 5874 5875 5876 5877 5878 5879 5880 5880 5882 5883 5884 5886 5888 5890 5892 5894 5895 5895 5896 5897 5898 5900 5902 5904 5905 5907 5909 5911 5913 5914 5915 5917 5918 5919 5920 5921 5922 5923 5924 5925
5912 5910 5909 5907 5906 5904 5903 5902 5900 5899 5897 5896 5894 5893 5891 5889 5887 5886 5885 5883 5880 5878 5876 5875 5874 5872 5870 5869 5868 5868 5867 5866 5865 5864 5861 5861 5861 5861 5861 5863 5865 5866 5867 5868 5869 5870 5871 5872 5873 5873 5874 5875 5876 5878 5880 5880 5881 5883 5885 5887 5890 5891 5892 5893 5894 5895 5897 5898 5900 5902 5904 5905 5907 5909 5911 5912 5914 5915 5916 5917 5918 5920 5921 5922 5923
5910 5908 5907 5905 5904 5902 5901 5899 5897 5896 5894 5893 5891 5890 5888 5887 5885 5883 5881 5880 5878 5875 5873 5871 5870 5868 5867 5865 5864 5863 5863 5863 5862 5861 5859 5857 5857 5857 5857 5857 5859 5861 5861 5861 5863 5865 5865 5866 5867 5867 5869 5870 5871 5873 5876 5877 5878 5879 5881 5883 5885 5886 5887 5889 5890 5892 5894 5896 5897 5899 5900 5902 5904 5905 5907 5909 5910 5912 5913 5915 5916 5917 5918 5919 5921
5907 5906 5904 5903 5901 5900 5898 5896 5894 5893 5891 5890 5888 5887 5885 5883 5881 5880 5878 5877 5875 5873 5870 5868 5866 5864 5862 5861 5859 5858 5858 5858 5858 5858 5857 5854 5852 5852 5852 5852 5853 5854 5855 5856 5857 5858 5859 5859 5860 5861 5864 5866 5867 5869 5872 5873 5874 5876 5877 5879 5880 5882 5884 5884 5885 5887 5890 5893 5894 5896 5897 5898 5900 5902 5904 5905 5907 5909 5910 5911 5913 5914 5915 5917 5918
5904 5903 5902 5900 5898 5897 5895 5894 5892 5890 5888 5887 5885 5883 5881 5880 5878 5876 5875 5873 5872 5870 5867 5865 5863 5861 5859 5857 5855 5854 5853 5852 5852 5852 5853 5852 5849 5847 5846 5847 5847 5848 5849 5850 5851 5852 5853 5855 5855 5857 5859 5861 5862 5864 5867 5868 5870 5871 5873 5875 5876 5878 5880 5881 5881 5882 5884 5887 5890 5893 5894 5895 5897 5898 5900 5902 5903 5905 5907 5908 5910 5911 5912 5914 5915
5903 5902 5900 5898 5896 5894 5893 5891 5889 5887 5885 5884 5882 5880 5877 5876 5874 5872 5870 5869 5867 5866 5864 5862 5859 5858 5856 5854 5851 5849 5848 5847 5846 5846 5847 5848 5847 5844 5842 5841 5842 5842 5842 5844 5846 5847 5848 5850 5850 5851 5853 5855 5856 5859 5862 5863 5865 5867 5869 5870 5872 5873 5875 5877 5878 5879 5880 5882 5885 5888 5891 5892 5894 5895 5897 5898 5900 5902 5903 5905 5906 5908 5909 5911 5912
5901 5900 5898 5896 5894 5892 5890 5888 5886 5885 5883 5881 5878 5876 5874 5872 5870 5868 5866 5864 5862 5861 5859 5857 5854 5852 5851 5850 5848 5845 5843 5842 5841 5841 5841 5841 5842 5841 5839 5837 5838 5838 5836 5837 5840 5842 5843 5844 5845 5845 5847 5848 5850 5853 5856 5859 5860 5862 5864 5865 5866 5868 5870 5872 5874 5875 5877 5878 5880 5883 5886 5888 5890 5892 5893 5895 5896 5898 5900 5902 5903 5905 5907 5908 5909
5899 5897 5895 5894 5892 5890 5888 5886 5884 5882 5880 5877 5875 5873 5870 5868 5866 5864 5862 5860 5857 5855 5853 5851 5849 5847 5845 5844 5842 5840 5838 5837 5836 5835 5835 5835 5836 5836 5834 5833 5835 5835 5832 5831 5833 5836 5838 5839 5840 5841 5841 5842 5844 5847 5851 5854 5856 5858 5859 5859 5861 5863 5865 5867 5869 5871 5873 5875 5877 5878 5881 5884 5886 5888 5889 5891 5892 5894 5896 5898 5900 5902 5903 5905 5907
5896 5894 5893 5891 5889 5887 5885 5883 5881 5878 5876 5874 5872 5869 5867 5864 5862 5860 5858 5855 5853 5851 5849 5847 5844 5842 5840 5838 5836 5834 5833 5832 5830 5829 5829 5829 5829 5830 5829 5828 5829 5831 5828 5826 5827 5829 5831 5833 5834 5835 5836 5837 5839 5841 5845 5848 5851 5853 5854 5855 5857 5859 5860 5862 5864 5866 5868 5871 5873 5875 5876 5879 5882 5884 5885 5887 5888 5890 5892 5894 5896 5898 5900 5902 5903
5893 5891 5890 5888 5886 5884 5881 5879 5877 5875 5872 5870 5868 5866 5863 5861 5858 5856 5854 5851 5849 5846 5844 5842 5840 5837 5835 5832 5831 5829 5827 5826 5825 5823 5822 5823 5823 5823 5823 5822 5823 5825 5824 5822 5822 5823 5825 5826 5827 5829 5830 5832 5834 5835 5838 5841 5844 5847 5849 5851 5852 5854 5856 5857 5859 5861 5864 5866 5868 5870 5872 5874 5877 5879 5881 5883 5884 5886 5888 5890 5892 5894 5896 5898 5900
5890 5888 5886 5884 5882 5880 5878 5875 5873 5871 5869 5866 5864 5862 5859 5857 5854 5852 5849 5847 5844 5842 5839 5837 5834 5832 5829 5827 5825 5823 5821 5820 5818 5817 5816 5816 5816 5816 5817 5817 5817 5818 5818 5818 5818 5819 5819 5819 5820 5822 5824 5826 5829 5830 5832 5834 5838 5840 5843 5845 5847 5849 5851 5853 5854 5856 5859 5861 5863 5865 5867 5869 5872 5874 5877 5879 5880 5882 5884 5886 5888 5890 5892 5894 5896
5886 5885 5883 5881 5879 5877 5875 5872 5870 5867 5865 5862 5860 5858 5855 5852 5850 5847 5844 5842 5839 5837 5834 5832 5829 5826 5823 5821 5819 5817 5815 5813 5812 5810 5809 5809 5809 5809 5810 5810 5811 5812 5812 5812 5814 5815 5815 5814 5814 5815 5817 5819 5822 5824 5826 5828 5831 5834 5836 5838 5841 5844 5846 5848 5850 5851 5853 5856 5858 5860 5862 5865 5867 5869 5872 5874 5876 5878 5880 5881 5883 5885 5888 5890 5892
5883 5881 5879 5877 5875 5873 5871 5869 5867 5864 5861 5859 5856 5853 5850 5848 5845 5842 5839 5836 5834 5832 5829 5826 5823 5821 5818 5815 5813 5811 5810 5808 5806 5805 5803 5802 5802 5802 5802 5802 5804 5805 5806 5807 5809 5809 5809 5809 5809 5809 5810 5812 5815 5818 5820 5822 5825 5827 5829 5832 5835 5838 5841 5843 5845 5846 5848 5850 5852 5855 5858 5860 5862 5864 5866 5869 5872 5873 5875 5877 5879 5881 5883 5885 5888
5879 5878 5876 5874 5872 5870 5868 5865 5863 5861 5858 5855 5852 5849 5846 5843 5840 5838 5835 5832 5829 5826 5823 5820 5817 5815 5812 5809 5807 5806 5805 5803 5801 5799 5798 5797 5795 5795 5795 5795 5796 5798 5799 5801 5804 5804 5803 5803 5804 5804 5803 5805 5808 5811 5813 5816 5819 5820 5822 5825 5829 5832 5835 5837 5839 5841 5842 5844 5847 5850 5853 5855 5857 5858 5861 5864 5867 5869 5870 5872 5874 5876 5878 5880 5883
5876 5874 5872 5870 5868 5866 5864 5862 5859 5857 5854 5851 5848 5845 5842 5839 5836 5833 5831 5828 5825 5821 5818 5815 5812 5809 5806 5803 5802 5801 5799 5798 5796 5794 5793 5791 5789 5788 5788 5788 5788 5790 5791 5794 5798 5799 5797 5796 5797 5798 5798 5798 5801 5804 5807 5811 5813 5815 5817 5819 5822 5826 5829 5831 5833 5836 5838 5840 5842 5845 5848 5850 5852 5853 5855 5858 5861 5864 5866 5867 5869 5871 5874 5876 5878
5872 5870 5869 5867 5865 5863 5860 5858 5855 5852 5849 5846 5843 5840 5838 5835 5832 5829 5826 5823 5820 5817 5813 5810 5807 5804 5801 5798 5796 5795 5794 5792 5790 5789 5787 5786 5784 5782 5781 5781 5781 5783 5783 5786 5791 5793 5791 5791 5791 5791 5792 5792 5794 5797 5801 5804 5807 5808 5811 5814 5817 5819 5822 5824 5827 5830 5833 5836 5838 5841 5843 5846 5847 5848 5850 5853 5856 5859 5861 5862 5864 5867 5869 5871 5873
5868 5866 5865 5863 5861 5859 5856 5853 5850 5847 5844 5842 5839 5836 5833 5830 5827 5824 5821 5818 5815 5811 5808 5805 5802 5799 5796 5793 5791 5789 5788 5786 5784 5783 5782 5780 5778 5777 5776 5776 5775 5776 5777 5778 5782 5786 5785 5784 5786 5786 5785 5786 5788 5790 5794 5798 5799 5801 5804 5808 5811 5813 5815 5818 5822 5825 5828 5831 5834 5836 5838 5841 5842 5843 5845 5848 5851 5853 5855 5857 5859 5861 5863 5866 5868
5865 5862 5860 5858 5856 5854 5851 5848 5846 5843 5840 5837 5834 5832 5828 5825 5822 5819 5816 5813 5810 5806 5802 5799 5796 5794 5791 5788 5786 5785 5782 5780 5778 5777 5776 5775 5773 5772 5771 5770 5769 5769 5770 5771 5773 5777 5778 5777 5779 5780 5779 5779 5781 5784 5787 5790 5792 5794 5797 5801 5804 5807 5809 5813 5816 5819 5823 5826 5829 5831 5833 5835 5837 5838 5840 5843 5845 5848 5850 5852 5854 5856 5858 5860 5863
5861 5859 5856 5854 5852 5849 5847 5844 5841 5839 5836 5832 5830 5827 5824 5821 5817 5814 5811 5808 5805 5801 5797 5794 5792 5789 5787 5784 5782 5780 5778 5775 5773 5772 5772 5770 5769 5767 5766 5765 5765 5764 5764 5764 5765 5769 5771 5771 5771 5773 5773 5772 5775 5777 5779 5783 5785 5787 5790 5794 5797 5800 5803 5806 5810 5813 5817 5820 5824 5826 5828 5830 5831 5833 5835 5838 5840 5843 5845 5847 5849 5851 5853 5855 5858
5857 5855 5853 5851 5848 5845 5842 5839 5836 5833 5831 5828 5825 5822 5819 5816 5813 5809 5806 5803 5800 5796 5793 5790 5787 5784 5782 5780 5777 5776 5773 5771 5769 5768 5768 5767 5765 5764 5762 5761 5760 5759 5758 5758 5758 5760 5763 5764 5764 5766 5767 5766 5768 5771 5772 5775 5778 5779 5783 5788 5791 5794 5797 5800 5804 5807 5810 5814 5818 5821 5823 5825 5827 5828 5830 5833 5835 5838 5840 5842 5844 5846 5848 5850 5853
5853 5851 5849 5847 5844 5841 5837 5834 5831 5829 5827 5824 5821 5818 5814 5811 5808 5805 5801 5798 5795 5792 5789 5786 5783 5780 5778 5775 5773 5771 5769 5767 5765 5764 5764 5763 5761 5759 5758 5757 5756 5755 5753 5752 5752 5753 5755 5757 5757 5758 5760 5760 5762 5764 5765 5768 5771 5772 5775 5780 5784 5788 5791 5794 5798 5802 5805 5808 5812 5815 5818 5820 5822 5824 5826 5828 5830 5833 5835 5836 5838 5841 5843 5845 5848
5849 5846 5844 5841 5839 5836 5833 5830 5828 5825 5822 5819 5816 5813 5810 5807 5804 5800 5797 5793 5790 5787 5784 5782 5779 5776 5774 5771 5769 5767 5765 5763 5762 5761 5760 5759 5757 5755 5754 5752 5751 5750 5748 5746 5746 5747 5748 5750 5751 5751 5753 5754 5755 5757 5758 5760 5764 5766 5768 5773 5777 5781 5785 5788 5792 5796 5800 5803 5806 5810 5813 5815 5817 5820 5822 5824 5825 5827 5829 5831 5833 5836 5838 5840 5843
5843 5841 5839 5836 5834 5831 5828 5826 5823 5820 5817 5815 5812 5809 5806 5802 5799 5796 5793 5789 5786 5783 5780 5777 5775 5772 5770 5767 5765 5763 5761 5760 5759 5758 5756 5754 5753 5751 5749 5747 5746 5745 5743 5741 5740 5740 5741 5743 5744 5745 5746 5747 5748 5751 5752 5753 5756 5759 5762 5766 5770 5774 5778 5782 5786 5791 5794 5797 5801 5804 5807 5809 5811 5814 5817 5818 5820 5822 5824 5826 5828 5830 5833 5835 5838
5839 5836 5834 5832 5829 5826 5823 5821 5818 5816 5813 5811 5808 5805 5802 5799 5795 5792 5789 5785 5782 5779 5776 5773 5771 5768 5766 5764 5762 5760 5758 5756 5755 5753 5752 5750 5749 5747 5744 5742 5741 5739 5738 5736 5734 5734 5735 5736 5736 5738 5739 5740 5742 5744 5745 5746 5749 5753 5756 5759 5764 5767 5772 5776 5780 5784 5788 5791 5795 5798 5801 5803 5806 5808 5811 5813 5816 5818 5820 5822 5824 5826 5828 5830 5833
5834 5832 5830 5827 5824 5821 5819 5817 5814 5812 5809 5806 5804 5801 5798 5795 5792 5789 5785 5782 5779 5775 5772 5770 5767 5765 5763 5761 5759 5757 5755 5753 5750 5748 5747 5746 5745 5742 5739 5737 5735 5733 5732 5730 5729 5728 5728 5729 5729 5730 5732 5734 5735 5737 5738 5739 5742 5747 5750 5752 5757 5761 5764 5768 5773 5777 5781 5784 5788 5791 5795 5798 5801 5803 5806 5808 5811 5814 5816 5817 5819 5822 5824 5826 5828
5830 5827 5825 5823 5820 5817 5815 5812 5810 5807 5805 5802 5799 5796 5794 5791 5788 5785 5782 5778 5775 5772 5769 5766 5764 5761 5760 5758 5756 5753 5751 5749 5747 5744 5743 5741 5740 5738 5735 5732 5729 5727 5725 5724 5723 5721 5721 5722 5722 5722 5725 5727 5728 5729 5731 5732 5735 5740 5743 5745 5750 5755 5757 5761 5765 5770 5773 5777 5781 5785 5789 5792 5796 5798 5801 5804 5807 5809 5811 5813 5815 5817 5819 5820 5822
5826 5823 5821 5819 5816 5813 5811 5808 5806 5803 5800 5797 5795 5792 5790 5787 5784 5781 5778 5775 5772 5769 5766 5763 5761 5758 5756 5754 5752 5750 5747 5745 5743 5741 5739 5737 5735 5733 5730 5727 5724 5722 5720 5718 5717 5715 5715 5715 5716 5716 5717 5719 5721 5722 5725 5727 5728 5732 5736 5739 5744 5748 5751 5755 5760 5763 5767 5771 5775 5780 5784 5787 5790 5792 5795 5799 5802 5803 5805 5808 5811 5812 5813 5815 5817
5822 5819 5817 5814 5812 5809 5806 5804 5801 5798 5796 5793 5791 5788 5785 5782 5780 5777 5775 5771 5768 5765 5763 5760 5758 5755 5753 5751 5749 5746 5744 5742 5739 5737 5735 5734 5731 5729 5726 5722 5719 5716 5714 5712 5710 5710 5709 5708 5709 5710 5710 5712 5714 5716 5719 5721 5722 5725 5729 5733 5737 5742 5745 5749 5754 5758 5761 5765 5769 5774 5777 5780 5783 5786 5789 5793 5796 5798 5801 5804 5805 5806 5808 5810 5812
5817 5815 5812 5810 5807 5804 5802 5799 5797 5794 5791 5789 5787 5784 5781 5778 5776 5773 5770 5767 5765 5762 5759 5757 5755 5752 5750 5747 5745 5743 5741 5738 5736 5734 5732 5730 5728 5725 5721 5718 5714 5711 5707 5704 5702 5702 5703 5703 5702 5703 5704 5706 5708 5710 5712 5714 5716 5718 5722 5726 5731 5735 5739 5743 5749 5753 5756 5758 5762 5767 5771 5774 5777 5780 5784 5787 5790 5792 5795 5798 5799 5801 5803 5805 5807
5812 5810 5807 5805 5803 5800 5797 5795 5793 5790 5788 5785 5783 5780 5777 5774 5772 5770 5767 5764 5761 5758 5756 5753 5751 5749 5746 5744 5742 5739 5737 5735 5733 5731 5729 5727 5725 5721 5718 5714 5711 5706 5702 5698 5695 5694 5696 5697 5696 5696 5697 5699 5701 5703 5704 5706 5709 5711 5715 5720 5724 5728 5732 5737 5743 5747 5749 5751 5754 5760 5765 5768 5771 5775 5779 5782 5784 5787 5790 5792 5793 5795 5798 5800 5803
5807 5805 5802 5800 5798 5795 5793 5791 5789 5786 5784 5781 5778 5776 5773 5771 5769 5766 5763 5760 5757 5754 5752 5749 5747 5745 5743 5741 5739 5736 5734 5731 5730 5728 5726 5724 5721 5718 5715 5711 5707 5702 5698 5694 5691 5688 5689 5690 5689 5689 5689 5691 5694 5696 5696 5699 5702 5705 5708 5712 5717 5721 5726 5730 5735 5739 5742 5744 5749 5754 5760 5764 5766 5769 5773 5777 5779 5781 5784 5786 5788 5790 5793 5795 5798
5802 5800 5798 5795 5792 5790 5788 5786 5784 5782 5779 5777 5774 5772 5769 5767 5765 5763 5760 5757 5754 5751 5748 5746 5743 5741 5739 5737 5735 5733 5731 5728 5726 5725 5722 5720 5718 5715 5712 5708 5704 5700 5695 5692 5688 5685 5683 5683 5682 5681 5681 5683 5686 5688 5690 5692 5695 5698 5701 5705 5710 5714 5719 5723 5728 5733 5736 5740 5744 5749 5755 5760 5762 5765 5769 5772 5773 5775 5778 5781 5783 5786 5788 5791 5793
5797 5796 5793 5790 5787 5785 5783 5782 5780 5777 5775 5772 5769 5767 5765 5763 5762 5759 5756 5753 5750 5747 5744 5742 5739 5737 5735 5733 5732 5730 5727 5725 5723 5721 5719 5716 5714 5712 5709 5705 5701 5697 5693 5689 5684 5681 5678 5677 5676 5675 5674 5677 5680 5683 5684 5685 5688 5691 5694 5698 5703 5708 5712 5717 5722 5727 5731 5735 5739 5744 5750 5755 5757 5760 5765 5766 5767 5770 5773 5776 5778 5781 5784 5786 5789
5792 5791 5788 5785 5781 5779 5778 5777 5775 5773 5770 5767 5764 5762 5761 5759 5758 5755 5753 5749 5746 5743 5741 5738 5736 5733 5731 5729 5728 5726 5724 5722 5720 5717 5715 5713 5710 5708 5704 5701 5697 5694 5690 5687 5682 5678 5674 5672 5670 5669 5669 5672 5676 5678 5678 5680 5682 5684 5687 5692 5698 5702 5706 5711 5717 5722 5727 5731 5734 5739 5745 5749 5752 5756 5759 5760 5762 5765 5768 5771 5774 5776 5779 5782 5784
5786 5785 5783 5780 5776 5774 5773 5772 5771 5769 5765 5762 5760 5759 5757 5755 5753 5751 5749 5746 5743 5740 5737 5734 5732 5729 5727 5725 5723 5722 5720 5719 5717 5714 5711 5709 5706 5703 5700 5697 5694 5690 5687 5683 5680 5676 5672 5668 5665 5664 5664 5667 5670 5672 5673 5674 5676 5678 5682 5688 5692 5695 5700 5706 5712 5717 5721 5725 5730 5734 5740 5745 5747 5750 5754 5755 5757 5761 5764 5766 5769 5771 5774 5777 5779
5779 5779 5777 5774 5771 5769 5768 5767 5765 5764 5761 5758 5756 5754 5753 5751 5749 5747 5745 5742 5739 5736 5733 5731 5728 5726 5723 5721 5719 5718 5716 5715 5712 5710 5708 5706 5702 5699 5696 5693 5690 5687 5683 5679 5676 5673 5669 5665 5661 5659 5659 5662 5664 5666 5668 5669 5670 5672 5676 5682 5686 5690 5696 5702 5707 5711 5715 5721 5725 5729 5735 5740 5742 5745 5749 5750 5752 5756 5759 5761 5764 5766 5769 5772 5775